| time (UTC) | temp C | wind direction | speed KPH | gust KPH | rain 1hr cm | rain 24hr cm | rain mn cm | humidity % | barometer mb |
| 20260503185003 | 17 | 121 | 1.6 | 11.3 | 0.00 | 0.00 | 0.00 | 32 | 1018.0 |
| 20260503184500 | 17 | 84 | 1.6 | 6.4 | 0.00 | 0.00 | 0.00 | 33 | 1018.0 |
| 20260503184003 | 17 | 303 | 3.2 | 6.4 | 0.00 | 0.00 | 0.00 | 33 | 1018.0 |
| 20260503183506 | 17 | 14 | 3.2 | 6.4 | 0.00 | 0.00 | 0.00 | 33 | 1018.0 |
| 20260503183000 | 17 | 57 | 4.8 | 6.4 | 0.00 | 0.00 | 0.00 | 32 | 1018.0 |
| 20260503182506 | 16 | 5 | 0.0 | 4.8 | 0.00 | 0.00 | 0.00 | 34 | 1018.0 |
| 20260503182000 | 16 | 338 | 1.6 | 12.9 | 0.00 | 0.00 | 0.00 | 34 | 1018.2 |
| 20260503181506 | 16 | 317 | 1.6 | 8.0 | 0.00 | 0.00 | 0.00 | 36 | 1018.1 |
| 20260503181000 | 15 | 87 | 4.8 | 9.7 | 0.00 | 0.00 | 0.00 | 35 | 1018.3 |
| 20260503180503 | 16 | 282 | 8.0 | 12.9 | 0.00 | 0.00 | 0.00 | 35 | 1018.4 |
| 20260503180002 | 15 | 296 | 1.6 | 11.3 | 0.00 | 0.00 | 0.00 | 34 | 1018.3 |
| 20260503175500 | 15 | 88 | 1.6 | 11.3 | 0.00 | 0.00 | 0.00 | 34 | 1018.4 |
| 20260503175006 | 15 | 19 | 3.2 | 6.4 | 0.00 | 0.00 | 0.00 | 35 | 1018.5 |
| 20260503174500 | 15 | 288 | 0.0 | 8.0 | 0.00 | 0.00 | 0.00 | 35 | 1018.5 |
| 20260503174000 | 15 | 304 | 0.0 | 4.8 | 0.00 | 0.00 | 0.00 | 37 | 1018.6 |
| 20260503173506 | 15 | 5 | 0.0 | 4.8 | 0.00 | 0.00 | 0.00 | 36 | 1018.7 |
| 20260503172959 | 15 | 299 | 4.8 | 8.0 | 0.00 | 0.00 | 0.00 | 37 | 1018.7 |
| 20260503172500 | 15 | 10 | 1.6 | 4.8 | 0.00 | 0.00 | 0.00 | 36 | 1018.8 |
| 20260503172003 | 15 | 5 | 1.6 | 12.9 | 0.00 | 0.00 | 0.00 | 36 | 1018.8 |
| 20260503171500 | 15 | 283 | 11.3 | 11.3 | 0.00 | 0.00 | 0.00 | 37 | 1018.8 |
| 20260503171009 | 15 | 14 | 4.8 | 8.0 | 0.00 | 0.00 | 0.00 | 36 | 1018.8 |
| 20260503170505 | 15 | 24 | 1.6 | 8.0 | 0.00 | 0.00 | 0.00 | 37 | 1018.9 |
| 20260503150919 | 11 | 0 | 0.0 | 6.4 | 0.00 | 0.00 | 0.00 | 44 | 1019.8 |
| 20260503150422 | 11 | 5 | 0.0 | 11.3 | 0.00 | 0.00 | 0.00 | 43 | 1019.9 |
| 20260503131416 | 8 | 299 | 3.2 | 8.0 | 0.00 | 0.00 | 0.00 | 62 | 1019.5 |
| 20260503130916 | 7 | 19 | 1.6 | 8.0 | 0.00 | 0.00 | 0.00 | 65 | 1019.5 |
| 20260503130419 | 7 | 21 | 1.6 | 8.0 | 0.00 | 0.00 | 0.00 | 69 | 1019.6 |
| 20260503110416 | 2 | 11 | 0.0 | 0.0 | 0.00 | 0.00 | 0.00 | 85 | 1018.7 |
| 20260503090416 | 2 | 11 | 0.0 | 0.0 | 0.00 | 0.00 | 0.00 | 80 | 1018.0 |
| 20260503081422 | 3 | 11 | 0.0 | 0.0 | 0.00 | 0.00 | 0.00 | 80 | 1017.7 |
| 20260503080919 | 3 | 11 | 0.0 | 0.0 | 0.00 | 0.00 | 0.00 | 80 | 1017.6 |
| 20260503080416 | 3 | 11 | 0.0 | 0.0 | 0.00 | 0.00 | 0.00 | 79 | 1017.6 |
| 20260503072922 | 4 | 11 | 0.0 | 0.0 | 0.00 | 0.00 | 0.00 | 75 | 1017.5 |
| 20260503072416 | 4 | 11 | 0.0 | 0.0 | 0.00 | 0.00 | 0.00 | 75 | 1017.5 |
| 20260503071922 | 4 | 11 | 0.0 | 0.0 | 0.00 | 0.00 | 0.00 | 75 | 1017.5 |
| 20260503071419 | 4 | 11 | 0.0 | 0.0 | 0.00 | 0.00 | 0.00 | 75 | 1017.5 |
| 20260503070916 | 4 | 11 | 0.0 | 0.0 | 0.00 | 0.00 | 0.00 | 75 | 1017.5 |
| 20260503070416 | 5 | 11 | 0.0 | 0.0 | 0.00 | 0.00 | 0.00 | 74 | 1017.4 |
| 20260503054916 | 6 | 13 | 0.0 | 0.0 | 0.00 | 0.00 | 0.00 | 69 | 1017.3 |
| 20260503054419 | 6 | 13 | 0.0 | 1.6 | 0.00 | 0.00 | 0.00 | 69 | 1017.3 |
| 20260503053916 | 6 | 13 | 0.0 | 0.0 | 0.00 | 0.00 | 0.00 | 69 | 1017.4 |
| 20260503053416 | 6 | 13 | 0.0 | 1.6 | 0.00 | 0.00 | 0.00 | 68 | 1017.5 |
| 20260503052916 | 6 | 13 | 0.0 | 1.6 | 0.00 | 0.00 | 0.00 | 68 | 1017.5 |
| 20260503052416 | 6 | 13 | 0.0 | 4.8 | 0.00 | 0.00 | 0.00 | 68 | 1017.5 |
| 20260503051916 | 6 | 5 | 1.6 | 3.2 | 0.00 | 0.00 | 0.00 | 68 | 1017.5 |
| 20260503051419 | 6 | 9 | 1.6 | 3.2 | 0.00 | 0.00 | 0.00 | 69 | 1017.4 |
| 20260503050922 | 5 | 12 | 0.0 | 3.2 | 0.00 | 0.00 | 0.00 | 70 | 1017.4 |
| 20260503050416 | 5 | 12 | 0.0 | 1.6 | 0.00 | 0.00 | 0.00 | 70 | 1017.4 |
| 20260503045919 | 5 | 12 | 1.6 | 1.6 | 0.00 | 0.00 | 0.00 | 71 | 1017.4 |
| 20260503045422 | 5 | 12 | 0.0 | 1.6 | 0.00 | 0.00 | 0.00 | 71 | 1017.4 |
| 20260503044925 | 5 | 12 | 0.0 | 1.6 | 0.00 | 0.00 | 0.00 | 70 | 1017.4 |
| 20260503044419 | 5 | 12 | 0.0 | 0.0 | 0.00 | 0.00 | 0.00 | 69 | 1017.4 |
| 20260503043919 | 5 | 12 | 0.0 | 0.0 | 0.00 | 0.00 | 0.00 | 69 | 1017.4 |
| 20260503043422 | 5 | 12 | 0.0 | 0.0 | 0.00 | 0.00 | 0.00 | 69 | 1017.4 |
| 20260503042916 | 5 | 12 | 0.0 | 0.0 | 0.00 | 0.00 | 0.00 | 69 | 1017.4 |
| 20260503042419 | 5 | 12 | 0.0 | 0.0 | 0.00 | 0.00 | 0.00 | 69 | 1017.3 |
| 20260503041922 | 5 | 12 | 0.0 | 0.0 | 0.00 | 0.00 | 0.00 | 69 | 1017.2 |
| 20260503041419 | 6 | 12 | 0.0 | 0.0 | 0.00 | 0.00 | 0.00 | 69 | 1017.1 |
| 20260503040919 | 6 | 12 | 0.0 | 0.0 | 0.00 | 0.00 | 0.00 | 69 | 1017.0 |
| 20260503040416 | 6 | 12 | 0.0 | 0.0 | 0.00 | 0.00 | 0.00 | 68 | 1017.1 |
| 20260503035922 | 6 | 12 | 0.0 | 0.0 | 0.00 | 0.00 | 0.00 | 68 | 1017.0 |
| 20260503035416 | 6 | 12 | 0.0 | 1.6 | 0.00 | 0.00 | 0.00 | 68 | 1017.0 |
| 20260503034916 | 6 | 12 | 0.0 | 0.0 | 0.00 | 0.00 | 0.00 | 68 | 1017.0 |
| 20260503034419 | 6 | 12 | 0.0 | 1.6 | 0.00 | 0.00 | 0.00 | 68 | 1016.9 |
| 20260503033916 | 6 | 12 | 0.0 | 0.0 | 0.00 | 0.00 | 0.00 | 68 | 1016.9 |
| 20260503033416 | 6 | 12 | 0.0 | 1.6 | 0.00 | 0.00 | 0.00 | 68 | 1016.8 |
| 20260503032916 | 6 | 12 | 0.0 | 1.6 | 0.00 | 0.00 | 0.00 | 68 | 1016.9 |
| 20260503032416 | 6 | 12 | 0.0 | 0.0 | 0.00 | 0.00 | 0.00 | 67 | 1016.9 |
| 20260503031919 | 6 | 12 | 0.0 | 0.0 | 0.00 | 0.00 | 0.00 | 67 | 1016.9 |
| 20260503031419 | 6 | 12 | 0.0 | 0.0 | 0.00 | 0.00 | 0.00 | 66 | 1016.9 |
| 20260503030919 | 6 | 12 | 0.0 | 0.0 | 0.00 | 0.00 | 0.00 | 66 | 1016.7 |
| 20260503030419 | 6 | 12 | 0.0 | 0.0 | 0.00 | 0.00 | 0.00 | 65 | 1016.7 |
| 20260503025919 | 6 | 12 | 0.0 | 0.0 | 0.00 | 0.00 | 0.00 | 64 | 1016.7 |
| 20260503025416 | 7 | 12 | 0.0 | 0.0 | 0.00 | 0.00 | 0.00 | 64 | 1016.7 |
| 20260503024916 | 7 | 12 | 0.0 | 0.0 | 0.00 | 0.00 | 0.00 | 64 | 1016.6 |
| 20260503024419 | 7 | 12 | 0.0 | 0.0 | 0.00 | 0.00 | 0.00 | 64 | 1016.6 |
| 20260503023916 | 7 | 12 | 0.0 | 0.0 | 0.00 | 0.00 | 0.00 | 64 | 1016.5 |
| 20260503023419 | 7 | 12 | 0.0 | 0.0 | 0.00 | 0.00 | 0.00 | 62 | 1016.5 |
| 20260503022919 | 7 | 12 | 0.0 | 0.0 | 0.00 | 0.00 | 0.00 | 62 | 1016.5 |
| 20260503022416 | 7 | 12 | 0.0 | 0.0 | 0.00 | 0.00 | 0.00 | 62 | 1016.4 |
| 20260503021922 | 7 | 12 | 0.0 | 0.0 | 0.00 | 0.00 | 0.00 | 61 | 1016.4 |
| 20260503021416 | 7 | 12 | 0.0 | 1.6 | 0.00 | 0.00 | 0.00 | 61 | 1016.3 |
| 20260503020916 | 7 | 12 | 0.0 | 1.6 | 0.00 | 0.00 | 0.00 | 60 | 1016.2 |
| 20260503020419 | 7 | 12 | 0.0 | 1.6 | 0.00 | 0.00 | 0.00 | 60 | 1016.2 |
| 20260503015916 | 8 | 12 | 0.0 | 1.6 | 0.00 | 0.00 | 0.00 | 59 | 1016.2 |
| 20260503015422 | 8 | 12 | 0.0 | 1.6 | 0.00 | 0.00 | 0.00 | 60 | 1016.2 |
| 20260503014922 | 8 | 12 | 0.0 | 1.6 | 0.00 | 0.00 | 0.00 | 59 | 1016.0 |
| 20260503014416 | 8 | 12 | 0.0 | 1.6 | 0.00 | 0.00 | 0.00 | 58 | 1015.9 |
| 20260503013916 | 8 | 12 | 0.0 | 0.0 | 0.00 | 0.00 | 0.00 | 56 | 1015.9 |
| 20260503013416 | 9 | 12 | 0.0 | 0.0 | 0.00 | 0.00 | 0.00 | 56 | 1015.9 |
| 20260503012922 | 9 | 12 | 0.0 | 0.0 | 0.00 | 0.00 | 0.00 | 55 | 1015.7 |
| 20260503012422 | 10 | 12 | 0.0 | 0.0 | 0.00 | 0.00 | 0.00 | 54 | 1015.6 |
| 20260503011916 | 10 | 12 | 0.0 | 0.0 | 0.00 | 0.00 | 0.00 | 55 | 1015.6 |
| 20260503011416 | 10 | 12 | 0.0 | 0.0 | 0.00 | 0.00 | 0.00 | 51 | 1015.5 |
| 20260503010919 | 10 | 12 | 1.6 | 1.6 | 0.00 | 0.00 | 0.00 | 51 | 1015.6 |
| 20260503010416 | 11 | 12 | 0.0 | 1.6 | 0.00 | 0.00 | 0.00 | 48 | 1015.5 |
| 20260503005916 | 11 | 12 | 0.0 | 3.2 | 0.00 | 0.00 | 0.00 | 47 | 1015.4 |
| 20260503005416 | 11 | 12 | 1.6 | 3.2 | 0.00 | 0.00 | 0.00 | 46 | 1015.4 |
| 20260503004916 | 11 | 12 | 1.6 | 4.8 | 0.00 | 0.00 | 0.00 | 45 | 1015.3 |
| 20260503004416 | 11 | 11 | 0.0 | 3.2 | 0.00 | 0.00 | 0.00 | 45 | 1015.2 |
| 20260503003916 | 11 | 11 | 1.6 | 6.4 | 0.00 | 0.00 | 0.00 | 44 | 1015.2 |
| 20260503003416 | 11 | 11 | 4.8 | 4.8 | 0.00 | 0.00 | 0.00 | 44 | 1015.1 |
| 20260503002919 | 11 | 11 | 1.6 | 4.8 | 0.00 | 0.00 | 0.00 | 43 | 1015.0 |
| 20260503002416 | 12 | 10 | 1.6 | 4.8 | 0.00 | 0.00 | 0.00 | 43 | 1014.9 |
| 20260503001916 | 12 | 13 | 1.6 | 4.8 | 0.00 | 0.00 | 0.00 | 42 | 1014.8 |
| 20260503001419 | 12 | 327 | 3.2 | 12.9 | 0.00 | 0.00 | 0.00 | 42 | 1014.8 |
| 20260503000916 | 12 | 5 | 1.6 | 12.9 | 0.00 | 0.00 | 0.00 | 41 | 1014.7 |
| 20260503000416 | 12 | 344 | 1.6 | 8.0 | 0.00 | 0.00 | 0.00 | 41 | 1014.6 |
| 20260502235919 | 12 | 51 | 6.4 | 9.7 | 0.00 | 0.00 | 0.00 | 40 | 1014.4 |
| 20260502235416 | 12 | 78 | 1.6 | 6.4 | 0.00 | 0.00 | 0.00 | 40 | 1014.3 |
| 20260502234922 | 13 | 336 | 1.6 | 8.0 | 0.00 | 0.00 | 0.00 | 40 | 1014.2 |
| 20260502234416 | 13 | 22 | 1.6 | 12.9 | 0.00 | 0.00 | 0.00 | 39 | 1014.2 |
| 20260502233916 | 13 | 13 | 3.2 | 6.4 | 0.00 | 0.00 | 0.00 | 39 | 1014.2 |
| 20260502233422 | 13 | 79 | 4.8 | 11.3 | 0.00 | 0.00 | 0.00 | 38 | 1014.1 |
| 20260502232925 | 13 | 24 | 1.6 | 6.4 | 0.00 | 0.00 | 0.00 | 39 | 1014.0 |
| 20260502232419 | 13 | 11 | 1.6 | 11.3 | 0.00 | 0.00 | 0.00 | 38 | 1014.0 |
| 20260502231922 | 13 | 5 | 4.8 | 8.0 | 0.00 | 0.00 | 0.00 | 37 | 1014.0 |
| 20260502231416 | 13 | 78 | 1.6 | 16.1 | 0.00 | 0.00 | 0.00 | 37 | 1013.9 |
| 20260502230916 | 13 | 50 | 4.8 | 12.9 | 0.00 | 0.00 | 0.00 | 37 | 1013.9 |
| 20260502230416 | 14 | 311 | 3.2 | 14.5 | 0.00 | 0.00 | 0.00 | 37 | 1013.8 |
| 20260502225916 | 14 | 15 | 4.8 | 6.4 | 0.00 | 0.00 | 0.00 | 36 | 1013.8 |
| 20260502225416 | 14 | 289 | 3.2 | 9.7 | 0.00 | 0.00 | 0.00 | 37 | 1013.7 |
| 20260502224916 | 14 | 36 | 6.4 | 11.3 | 0.00 | 0.00 | 0.00 | 37 | 1013.7 |
| 20260502224419 | 14 | 21 | 6.4 | 9.7 | 0.00 | 0.00 | 0.00 | 36 | 1013.7 |
| 20260502223919 | 14 | 325 | 1.6 | 12.9 | 0.00 | 0.00 | 0.00 | 35 | 1013.6 |
| 20260502223416 | 14 | 326 | 1.6 | 9.7 | 0.00 | 0.00 | 0.00 | 34 | 1013.6 |
| 20260502222919 | 15 | 294 | 1.6 | 12.9 | 0.00 | 0.00 | 0.00 | 34 | 1013.5 |
| 20260502222419 | 15 | 300 | 6.4 | 17.7 | 0.00 | 0.00 | 0.00 | 34 | 1013.4 |
| 20260502221916 | 14 | 283 | 4.8 | 12.9 | 0.00 | 0.00 | 0.00 | 34 | 1013.5 |
| 20260502221416 | 14 | 38 | 11.3 | 16.1 | 0.00 | 0.00 | 0.00 | 34 | 1013.3 |
| 20260502220919 | 14 | 66 | 12.9 | 12.9 | 0.00 | 0.00 | 0.00 | 35 | 1013.1 |
| 20260502215919 | 14 | 310 | 14.5 | 11.3 | 0.00 | 0.00 | 0.00 | 35 | 1013.0 |
| 20260502215416 | 14 | 14 | 3.2 | 14.5 | 0.00 | 0.00 | 0.00 | 34 | 1013.1 |
| 20260502214916 | 14 | 56 | 6.4 | 12.9 | 0.00 | 0.00 | 0.00 | 35 | 1013.1 |
| 20260502214416 | 14 | 57 | 11.3 | 16.1 | 0.00 | 0.00 | 0.00 | 35 | 1013.0 |
| 20260502213919 | 15 | 31 | 4.8 | 14.5 | 0.00 | 0.00 | 0.00 | 36 | 1012.8 |
| 20260502213419 | 15 | 274 | 6.4 | 14.5 | 0.00 | 0.00 | 0.00 | 33 | 1012.8 |
| 20260502212916 | 15 | 24 | 8.0 | 12.9 | 0.00 | 0.00 | 0.00 | 33 | 1012.7 |
| 20260502212416 | 15 | 109 | 1.6 | 16.1 | 0.00 | 0.00 | 0.00 | 34 | 1012.7 |
| 20260502211916 | 15 | 296 | 6.4 | 11.3 | 0.00 | 0.00 | 0.00 | 35 | 1012.4 |
| 20260502211416 | 15 | 355 | 8.0 | 24.1 | 0.00 | 0.00 | 0.00 | 34 | 1012.6 |
| 20260502210919 | 15 | 284 | 3.2 | 20.9 | 0.00 | 0.00 | 0.00 | 35 | 1012.5 |
| 20260502210419 | 15 | 22 | 16.1 | 24.1 | 0.00 | 0.00 | 0.00 | 37 | 1012.4 |
| 20260502205916 | 15 | 296 | 4.8 | 9.7 | 0.00 | 0.00 | 0.00 | 35 | 1012.4 |
| 20260502205416 | 15 | 9 | 1.6 | 14.5 | 0.00 | 0.00 | 0.00 | 35 | 1012.4 |
| 20260502204919 | 15 | 5 | 3.2 | 17.7 | 0.00 | 0.00 | 0.00 | 33 | 1012.5 |
| 20260502204416 | 15 | 269 | 3.2 | 8.0 | 0.00 | 0.00 | 0.00 | 35 | 1012.4 |
| 20260502203925 | 15 | 300 | 4.8 | 16.1 | 0.00 | 0.00 | 0.00 | 32 | 1012.6 |
| 20260502203416 | 15 | 36 | 1.6 | 16.1 | 0.00 | 0.00 | 0.00 | 34 | 1012.4 |
| 20260502202919 | 15 | 313 | 4.8 | 16.1 | 0.00 | 0.00 | 0.00 | 34 | 1012.4 |
| 20260502202416 | 15 | 293 | 4.8 | 16.1 | 0.00 | 0.00 | 0.00 | 35 | 1012.2 |
| 20260502201916 | 14 | 101 | 1.6 | 20.9 | 0.00 | 0.00 | 0.00 | 34 | 1012.3 |
| 20260502201416 | 14 | 5 | 1.6 | 9.7 | 0.00 | 0.00 | 0.00 | 34 | 1012.4 |
| 20260502200916 | 14 | 0 | 1.6 | 12.9 | 0.00 | 0.00 | 0.00 | 34 | 1012.4 |
| 20260502200419 | 15 | 84 | 4.8 | 16.1 | 0.00 | 0.00 | 0.00 | 34 | 1012.4 |
| 20260502195922 | 15 | 227 | 6.4 | 12.9 | 0.00 | 0.00 | 0.00 | 33 | 1012.4 |
| 20260502195416 | 15 | 292 | 4.8 | 14.5 | 0.00 | 0.00 | 0.00 | 35 | 1012.5 |
| 20260502194919 | 14 | 344 | 3.2 | 9.7 | 0.00 | 0.00 | 0.00 | 36 | 1012.6 |
| 20260502194419 | 14 | 25 | 3.2 | 9.7 | 0.00 | 0.00 | 0.00 | 34 | 1012.7 |
| 20260502193916 | 15 | 47 | 4.8 | 16.1 | 0.00 | 0.00 | 0.00 | 34 | 1012.4 |
| 20260502193419 | 15 | 302 | 1.6 | 12.9 | 0.00 | 0.00 | 0.00 | 34 | 1012.7 |
| 20260502192916 | 15 | 5 | 3.2 | 14.5 | 0.00 | 0.00 | 0.00 | 34 | 1012.6 |
| 20260502192416 | 16 | 277 | 8.0 | 17.7 | 0.00 | 0.00 | 0.00 | 33 | 1012.6 |
| 20260502191922 | 16 | 280 | 4.8 | 16.1 | 0.00 | 0.00 | 0.00 | 32 | 1012.7 |
| 20260502191425 | 16 | 355 | 1.6 | 24.1 | 0.00 | 0.00 | 0.00 | 32 | 1012.6 |
| 20260502190916 | 15 | 348 | 9.7 | 14.5 | 0.00 | 0.00 | 0.00 | 34 | 1012.7 |
| 20260502190416 | 15 | 355 | 3.2 | 16.1 | 0.00 | 0.00 | 0.00 | 31 | 1012.8 |
| 20260502185916 | 15 | 27 | 6.4 | 14.5 | 0.00 | 0.00 | 0.00 | 32 | 1012.7 |
| 20260502185416 | 15 | 296 | 1.6 | 12.9 | 0.00 | 0.00 | 0.00 | 32 | 1012.8 |